This demonstration page uses our WeatherBlox Daily Observations layout. Learn more.

Left ArrowRight Arrow

41.86663, -103.66717

Hourly Observations for January 31, 2021

Temp ( °F °C ) Dew Point ( °F °C ) Humidity (%) Winds ( mph kmh ) Pressure ( in mb ) Visibility ( mi km ) Precip ( " mm )
12:53 am 00:53 Clear 27 -2.8 23 -5 85 85 WNW 6 9 30.24 1024 10 16 0.00 0.00
1:53 am 01:53 Mostly Clear 28 -2.2 23 -5 81 81 W 8 13 30.27 1025 10 16 0.00 0.00
2:53 am 02:53 Clear 24 -4.4 20 -6.7 84 84 NW 7 11 30.30 1026 10 16 0.00 0.00
3:53 am 03:53 Clear 24 -4.4 20 -6.7 84 84 NW 7 11 30.32 1027 10 16 0.00 0.00
4:53 am 04:53 Mostly Clear 26 -3.3 21 -6.1 81 81 WNW 8 13 30.35 1028 10 16 0.00 0.00
5:53 am 05:53 Partly Cloudy 26 -3.3 21 -6.1 81 81 WNW 6 9 30.38 1029 10 16 0.00 0.00
6:53 am 06:53 Mostly Cloudy 24 -4.4 19 -7.2 81 81 WNW 7 11 30.42 1030 10 16 0.00 0.00
7:53 am 07:53 Sunny 26 -3.3 20 -6.7 78 78 NW 6 9 30.43 1031 10 16 0.00 0.00
8:53 am 08:53 Mostly Sunny 32 0 23 -5 69 69 WNW 10 17 30.43 1031 10 16 0.00 0.00
9:53 am 09:53 Sunny 38 3.3 20 -6.7 48 48 W 13 20 30.43 1031 10 16 0.00 0.00
10:53 am 10:53 Sunny 42 5.6 19 -7.2 40 40 WNW 13 20 30.43 1031 10 16 0.00 0.00
11:53 am 11:53 Sunny 46 7.8 18 -7.8 32 32 NW 14 22 30.39 1029 10 16 0.00 0.00
12:53 pm 12:53 Sunny 48 8.9 15 -9.4 27 27 NW 12 19 30.36 1028 10 16 0.00 0.00
1:53 pm 13:53 Sunny 49 9.4 14 -10 25 25 WNW 10 17 30.35 1028 10 16 0.00 0.00
2:53 pm 14:53 Sunny 51 10.6 11 -11.7 20 20 NW 8 13 30.35 1028 10 16 0.00 0.00
3:53 pm 15:53 Sunny 50 10 13 -10.6 22 22 NW 5 7 30.34 1027 10 16 0.00 0.00
4:53 pm 16:53 Sunny 43 6.1 14 -10 31 31 NNE 3 6 30.34 1028 10 16 0.00 0.00
5:53 pm 17:53 Clear 33 0.6 14 -10 45 45 Calm 30.38 1029 10 16 0.00 0.00
6:53 pm 18:53 Clear 28 -2.2 14 -10 56 56 N 5 7 30.42 1030 10 16 0.00 0.00
7:53 pm 19:53 Clear 23 -5 13 -10.6 65 65 VRB 3 6 30.42 1030 10 16 0.00 0.00
9:53 pm 21:53 Clear 21 -6.1 12 -11.1 68 68 Calm 30.40 1029 10 16 0.00 0.00
10:53 pm 22:53 Clear 21 -6.1 12 -11.1 68 68 E 6 9 30.37 1029 10 16 0.00 0.00
11:53 pm 23:53 Clear 23 -5 12 -11.1 63 63 E 3 6 30.35 1028 10 16 0.00 0.00

Powered by AerisWeather